Simultaneous Nadir Overpasses (SNOs) Predictions

Prediction of SNOs between METOP-B and NPP Satellite Orbit:

Table of predicted SNOs for the next 14.0 days since TLE Epoch: 8/26/2016
Index Date (METOP-B) Time (METOP-B) Lat,Lon (METOP-B) SZA (METOP-B ) Date (NPP) Time (NPP) Lat,Lon (NPP) SZA (NPP ) Distance(km) Time Diff (sec)
1 09/09/2016 11:45:45 73.42, -2.81 68.38 09/09/2016 11:44:38 73.43, -5.59 68.50 88.16 67
2 09/09/2016 12:36:29 -73.35, 164.34 111.69 09/09/2016 12:35:21 -73.38, 161.85 111.55 79.21 68
3 09/09/2016 13:27:13 73.10, -28.86 68.11 09/09/2016 13:26:02 73.14, -30.31 68.21 46.99 71
4 09/09/2016 14:17:56 -73.08, 138.40 111.91 09/09/2016 14:16:45 -73.08, 137.12 111.84 41.44 71
5 09/09/2016 15:08:40 72.83, -54.78 67.88 09/09/2016 15:07:26 72.84, -55.05 67.91 9.04 74
6 09/09/2016
